Theta_e
315 315 316 321 331 340 343 344 345 346 346 348 348 348 348 348 347 346 347 347 347 348 348 348 348 348 348 349 348 348 348 348 348 348 348 349 348 348 348 348 349 348 348 348 346 346 347 347 346 347 347 347 346 346 346 346 347 347 347 348 349 351 351 352 351 352 353 352 352 352 353 353 354 355 356 355 355 355 353 353 353 355 356 356 356
312 314 314 317 330 339 340 342 343 344 345 346 346 346 346 347 348 347 348 348 347 346 348 348 348 348 348 348 348 347 347 348 348 348 347 346 347 348 348 348 348 349 349 349 348 347 347 347 346 346 345 345 345 345 345 345 346 346 347 347 347 350 350 351 353 352 352 351 350 351 351 351 352 353 355 355 355 355 352 352 352 354 355 355 355
312 312 312 316 327 336 338 339 340 341 343 344 345 345 345 346 346 346 347 347 347 348 348 348 348 349 349 348 348 348 348 348 347 348 347 345 345 346 347 348 348 349 349 349 349 349 347 348 347 346 346 346 345 344 344 345 345 345 346 346 347 347 350 351 352 353 352 351 351 350 348 348 349 352 353 354 355 355 353 352 352 352 354 356 355
308 309 311 316 324 332 336 338 338 339 340 341 342 342 343 343 343 344 344 346 346 347 347 347 348 348 348 348 349 347 347 348 348 347 346 347 347 345 343 343 347 348 348 348 349 349 349 349 349 348 348 350 348 346 346 345 345 345 345 346 347 346 347 350 351 352 351 350 350 347 350 351 351 351 353 355 354 355 353 351 351 351 354 355 355
307 307 309 314 321 329 332 334 335 336 337 338 338 339 339 340 340 341 342 343 345 346 345 346 346 347 347 347 347 348 347 347 347 347 347 347 347 346 345 345 346 347 347 348 349 347 348 348 349 348 348 350 350 350 349 346 345 345 345 345 346 347 347 348 350 351 350 349 348 347 350 351 352 350 353 355 355 355 352 351 351 352 354 354 355
305 306 308 313 319 327 330 331 332 333 334 334 335 335 335 336 337 338 339 340 342 343 343 343 344 345 345 346 346 346 347 345 346 346 347 347 345 346 345 345 345 346 347 348 348 348 348 348 348 347 347 350 350 351 350 347 346 345 345 345 345 346 347 349 350 350 349 347 345 351 349 350 350 352 353 354 354 354 352 351 352 353 354 354 355
303 305 307 311 318 325 327 329 330 331 331 332 332 332 333 333 334 335 336 336 336 336 337 338 340 342 344 344 344 345 346 346 345 346 346 346 346 345 345 345 346 346 346 347 347 347 348 348 347 347 347 349 350 350 350 348 347 346 346 345 345 345 346 348 349 348 347 347 350 350 349 349 350 351 352 354 354 354 352 352 353 353 354 354 354
303 304 305 309 317 322 325 327 328 328 329 329 330 330 330 331 331 331 331 331 332 332 333 335 337 339 340 342 343 343 344 344 343 342 344 344 345 344 344 344 345 345 347 346 346 347 347 346 346 344 346 345 347 349 350 349 349 348 347 346 345 345 347 348 348 347 346 348 349 349 348 349 350 350 351 354 354 353 353 353 353 354 354 355 352
300 300 303 308 316 321 323 325 326 327 327 327 327 327 328 329 329 329 328 328 328 329 330 331 333 334 335 336 338 341 341 342 341 340 341 342 342 342 343 343 344 344 346 346 347 346 345 345 346 346 347 345 345 345 346 347 348 348 347 347 347 347 347 347 347 344 345 349 349 348 348 348 349 350 350 353 354 354 353 353 353 354 354 353 351
299 300 301 306 316 319 321 323 324 325 325 325 325 325 326 326 327 327 325 325 326 326 327 328 329 329 330 331 332 333 335 335 334 335 336 338 339 339 340 341 342 341 343 344 345 345 345 346 346 346 345 344 344 344 345 346 346 348 348 348 348 348 348 347 346 343 347 348 348 348 348 345 348 349 350 351 354 354 353 349 349 348 350 350 349
299 299 300 304 315 317 319 321 322 322 323 323 323 324 324 324 324 324 324 323 323 324 325 325 326 326 326 326 327 327 328 328 329 330 330 331 335 335 338 338 339 340 341 342 344 345 346 346 345 345 345 344 344 344 344 345 345 345 346 348 349 348 348 347 343 348 349 348 347 347 346 343 347 349 349 351 353 354 351 347 346 346 348 350 352
298 299 300 303 311 314 316 318 320 320 321 321 321 322 322 322 322 322 322 321 321 322 322 322 323 323 323 323 323 324 324 324 325 325 325 326 328 329 331 333 335 336 338 340 341 343 344 345 345 345 344 343 342 342 343 344 344 345 345 345 347 348 347 344 347 348 349 348 347 346 347 346 346 346 348 350 352 353 351 349 348 350 352 352 352
299 298 299 301 306 311 313 315 317 318 319 320 320 320 320 320 320 320 320 320 320 320 320 320 321 320 320 320 319 320 321 321 322 322 322 322 323 323 326 328 329 330 332 334 336 338 340 342 342 342 341 341 341 341 342 343 343 343 344 345 345 346 344 341 348 347 347 347 346 345 345 345 345 345 347 350 351 352 352 351 351 352 352 352 351
298 298 298 299 303 308 310 311 313 315 315 316 318 318 318 318 318 318 318 317 317 317 317 317 318 317 317 317 317 317 318 318 319 320 319 320 320 320 323 324 325 325 327 329 332 334 335 337 337 337 337 339 338 339 340 342 342 343 343 343 344 344 341 338 340 346 345 345 346 345 344 344 344 344 346 350 351 352 352 351 351 352 352 350 351
297 300 300 298 299 302 306 308 309 311 313 313 314 314 315 316 316 316 316 315 315 314 314 314 315 315 314 314 315 315 315 315 316 316 316 317 317 317 320 322 322 323 324 327 329 329 329 331 332 333 335 336 337 337 339 340 341 341 341 342 342 341 339 346 345 346 344 345 344 345 345 344 343 344 346 349 350 351 351 351 351 351 351 351 348
299 298 298 298 298 299 301 303 305 306 308 310 310 311 312 312 313 313 313 313 313 312 311 312 312 312 312 312 311 312 312 313 313 314 313 314 314 315 317 319 320 320 322 324 325 324 323 325 326 327 328 332 335 336 337 338 338 336 335 336 337 337 335 334 345 344 344 343 344 344 344 344 343 345 347 349 350 350 351 350 351 351 350 351 349
299 299 298 297 299 297 298 300 301 302 303 305 307 307 309 309 310 310 310 310 310 310 309 309 309 309 310 309 308 307 307 309 309 310 311 310 311 311 314 316 317 317 319 321 321 320 320 322 323 325 326 328 330 333 333 333 333 333 333 334 335 336 334 331 343 343 343 343 343 344 344 344 343 345 347 349 349 350 350 350 350 350 351 351 349
298 298 297 296 297 297 297 298 298 299 299 300 303 305 305 306 307 307 307 307 307 307 307 306 306 306 306 305 304 304 304 305 306 307 308 307 307 308 310 313 314 315 315 317 318 318 318 319 322 323 323 323 324 326 328 328 330 331 332 333 333 333 332 328 341 342 342 340 342 343 343 340 342 344 347 349 349 350 350 350 349 350 350 350 345
297 296 297 297 296 297 296 297 298 297 298 299 299 302 302 303 304 304 305 305 305 304 304 303 303 303 303 303 302 302 302 302 303 303 305 305 304 304 306 310 311 312 313 314 315 315 315 317 319 320 319 319 320 321 323 325 326 328 330 330 330 329 326 329 339 339 340 340 340 342 343 340 342 345 347 348 348 349 350 350 349 349 349 348 345
296 296 296 297 297 296 297 296 296 296 298 298 298 299 301 301 301 302 302 302 302 302 301 301 300 300 301 301 300 300 299 299 301 300 301 302 302 302 304 308 308 309 309 311 311 312 313 315 317 317 317 317 317 317 318 321 323 324 326 326 326 323 333 337 337 338 339 339 339 340 338 339 342 346 347 348 348 349 349 349 349 347 349 348 348
296 295 295 295 296 296 296 296 296 295 297 297 297 299 300 298 298 299 300 300 300 299 299 298 298 298 298 298 299 298 298 298 298 299 300 299 300 301 302 305 306 306 306 308 308 309 310 312 313 314 314 313 312 312 313 316 319 321 322 322 320 329 333 335 335 336 338 338 338 339 337 339 341 344 347 348 348 348 348 349 349 347 347 347 347
294 294 295 294 295 296 296 296 296 296 296 298 297 298 297 297 296 297 298 298 298 297 296 297 296 296 297 297 297 296 297 297 297 299 298 298 298 300 300 302 304 304 304 305 305 306 307 309 310 311 311 310 308 308 309 311 312 315 317 318 324 331 333 334 335 335 337 338 338 337 337 339 341 344 345 348 346 346 347 348 349 348 346 346 347
292 293 294 294 294 295 295 295 295 295 296 296 297 297 296 295 295 296 296 296 296 296 295 295 296 295 296 296 296 296 296 296 297 298 298 297 297 298 299 300 301 301 302 302 303 304 305 306 307 307 307 306 305 306 306 309 310 311 313 318 322 326 328 332 333 333 334 336 337 334 336 338 340 342 345 346 347 346 346 347 348 348 347 345 347
292 293 294 295 294 295 295 296 296 295 295 296 296 296 295 295 295 296 295 295 295 295 295 295 295 295 295 295 295 296 296 295 296 296 296 296 296 296 297 297 298 298 300 299 300 301 303 302 303 304 303 303 303 303 303 305 307 309 310 313 318 320 323 325 329 332 333 334 336 333 336 338 340 341 344 345 346 345 346 347 347 348 346 346 345
293 294 296 293 294 293 295 295 295 295 295 295 295 296 295 294 294 296 295 295 295 294 294 294 294 294 295 294 295 295 295 295 295 294 294 294 294 295 295 295 295 296 297 297 297 298 298 298 299 300 300 300 301 301 302 302 303 305 307 308 310 313 317 321 324 328 332 334 335 331 333 336 339 341 343 345 346 345 345 346 346 347 347 347 346
293 291 292 293 294 293 294 294 294 294 294 294 294 296 294 294 294 296 294 295 294 293 293 293 293 294 294 294 294 294 294 294 293 293 293 293 293 293 293 294 294 295 296 295 296 296 296 297 297 298 298 299 299 300 301 301 301 303 304 306 308 310 314 317 320 324 327 330 333 330 331 334 338 339 341 343 344 344 344 344 346 346 346 347 347
294 292 293 292 295 292 293 293 295 294 294 294 294 294 293 294 295 296 294 295 293 293 293 293 293 293 294 294 293 293 292 292 291 291 291 291 291 292 292 293 293 294 294 294 295 295 295 295 296 296 297 297 298 299 299 300 301 302 303 304 306 307 309 313 317 321 325 327 326 327 328 330 336 338 339 342 344 344 346 345 344 345 345 346 347
292 292 292 292 295 293 292 291 294 294 294 294 293 293 293 294 295 295 293 295 293 292 292 293 293 292 293 293 293 292 291 290 290 290 290 290 290 291 292 292 292 293 293 294 293 293 293 294 294 295 295 296 297 297 298 299 300 301 301 302 304 305 307 308 310 314 319 322 325 325 325 328 331 334 337 339 342 342 343 345 343 344 345 346 347
291 291 292 292 293 295 292 291 292 292 293 293 293 293 293 294 294 293 292 294 292 292 292 292 291 291 292 293 293 291 290 290 289 289 289 289 290 290 291 291 291 291 292 291 292 291 291 292 292 293 294 295 295 296 297 298 299 300 300 301 302 303 304 306 308 310 314 319 323 323 322 326 330 332 335 337 340 341 342 343 343 344 343 345 345
292 292 292 293 292 292 291 291 292 294 294 293 293 293 293 293 293 293 293 292 292 292 292 291 291 291 291 292 292 290 289 289 288 288 288 288 289 290 290 289 289 289 290 289 289 289 289 290 291 292 292 293 294 295 296 297 298 299 300 300 301 302 303 304 306 308 310 312 316 321 319 321 326 331 333 335 337 340 342 342 343 345 345 344 345
291 291 291 292 295 292 291 292 291 296 294 292 293 293 292 292 293 293 293 291 291 292 291 290 290 290 291 292 291 290 289 288 288 288 288 288 288 288 288 288 288 288 289 288 289 288 288 289 289 290 291 292 293 294 295 296 297 298 299 299 300 301 302 303 303 304 305 307 310 314 320 319 323 326 329 332 335 337 339 341 341 342 344 345 345
291 291 291 292 292 290 291 291 291 294 294 293 294 293 292 292 293 292 291 292 292 290 289 289 289 289 291 291 290 289 289 288 288 287 287 287 287 287 287 287 287 288 288 288 287 288 288 288 289 289 290 291 292 294 295 295 295 297 298 299 300 300 300 301 301 301 303 304 305 306 308 312 317 321 324 329 334 335 337 338 339 339 342 342 344
291 291 291 292 290 290 291 291 291 292 292 291 292 292 292 292 292 292 291 293 290 290 288 288 288 289 290 290 289 288 288 287 287 287 287 286 286 287 286 287 287 287 288 287 287 287 287 287 288 288 288 289 291 292 294 294 295 296 297 298 299 299 300 300 300 300 301 302 303 304 306 308 311 315 320 323 328 332 335 336 337 339 341 342 344
291 290 290 290 291 292 293 293 293 292 293 292 292 292 291 292 293 292 291 291 289 288 288 288 288 288 288 289 289 288 288 287 287 286 286 286 286 286 286 286 287 287 287 287 286 287 286 286 286 286 287 287 288 290 292 293 294 296 296 297 298 298 299 298 299 299 300 300 301 303 304 306 308 313 320 320 322 325 330 333 335 336 338 339 340
291 289 289 289 292 291 292 290 295 292 291 292 292 291 292 292 291 291 290 290 289 288 287 288 287 288 287 287 288 287 287 287 287 286 285 285 285 285 285 285 286 286 286 286 286 286 286 285 286 285 286 286 287 288 290 291 293 294 296 297 297 297 298 297 298 298 299 299 300 301 302 303 306 309 312 318 317 321 324 329 333 336 336 337 338
290 290 289 289 289 289 294 291 292 291 291 291 292 291 290 291 290 291 290 290 289 287 287 287 287 287 287 287 287 287 286 286 286 286 285 284 284 284 284 285 285 285 285 285 286 285 285 285 285 285 285 285 286 286 287 288 290 292 294 295 295 296 296 296 297 297 298 299 299 300 300 302 304 306 308 310 318 322 322 325 328 332 333 335 337
289 288 289 288 288 288 293 290 290 290 289 288 289 290 290 290 289 289 289 289 288 287 287 287 287 287 286 286 287 286 286 286 286 285 284 284 284 284 284 284 285 285 284 284 285 285 285 284 285 285 285 284 285 286 286 287 288 289 290 292 293 294 294 295 296 297 298 298 298 299 300 300 301 302 304 307 309 315 321 322 325 327 327 330 333
288 288 289 288 288 288 290 290 290 290 289 289 290 290 290 290 289 289 289 288 288 287 286 286 286 286 286 286 286 285 285 285 285 285 284 284 284 283 283 284 284 284 283 284 284 284 284 284 283 285 285 285 284 284 285 286 288 288 290 291 292 293 294 295 296 297 297 297 297 298 298 299 300 301 302 304 309 312 316 323 322 322 320 323 329
287 287 287 288 288 288 289 291 291 289 289 289 289 290 289 288 287 287 287 287 287 286 286 286 286 286 285 286 286 285 284 285 284 284 283 283 283 283 283 283 283 283 283 283 283 283 284 284 284 284 285 285 284 284 284 285 286 288 289 290 292 293 294 295 296 296 296 296 297 297 299 298 299 300 301 304 306 309 314 318 326 330 328 320 326
287 285 287 287 287 287 288 289 290 289 288 288 288 288 287 286 285 286 285 285 286 285 286 285 285 285 285 286 285 284 284 284 284 284 283 282 282 282 282 282 282 282 282 281 282 282 282 283 284 283 283 283 284 284 284 284 284 285 286 288 290 291 292 293 294 294 295 296 296 297 297 298 299 301 302 303 305 307 309 315 321 327 330 325 322
286 285 286 286 287 287 288 287 288 287 287 287 286 286 285 285 285 284 283 284 284 284 285 285 285 284 285 285 284 283 284 283 283 283 282 282 282 282 282 282 282 281 281 281 282 282 283 283 282 282 281 280 281 283 283 283 282 282 286 288 289 292 292 293 293 293 294 295 296 296 297 298 298 299 300 302 303 305 307 311 319 325 328 330 326
284 284 285 286 286 286 287 287 287 286 287 286 287 286 286 285 284 284 284 283 283 283 283 283 284 285 285 284 284 283 283 283 283 283 282 282 281 281 281 281 281 281 281 281 281 281 281 280 280 279 281 280 280 282 282 282 281 282 282 283 286 289 291 292 292 293 294 295 296 296 297 297 298 299 301 302 303 305 307 308 313 321 327 329 329
285 284 286 286 285 285 286 286 286 286 286 286 286 286 286 286 285 284 284 283 284 284 284 284 284 284 284 284 283 283 283 282 282 282 282 281 281 281 280 281 280 281 280 280 280 279 280 279 279 279 278 280 280 282 282 283 280 282 282 281 282 285 288 291 293 293 294 295 296 297 298 298 299 301 302 303 305 306 307 310 312 318 323 327 329
285 284 284 285 285 286 285 285 286 286 286 286 288 286 286 286 285 285 284 283 282 284 284 284 284 283 282 283 282 282 282 282 282 281 281 281 281 280 280 280 280 280 279 279 279 279 279 279 279 279 279 278 279 280 283 282 282 280 278 283 283 283 281 286 289 292 295 295 295 295 297 296 296 297 300 301 301 307 311 311 311 316 322 326 328
284 284 284 284 285 285 285 285 285 285 285 287 288 287 286 285 284 283 283 283 282 282 282 281 282 282 281 281 281 281 281 281 281 281 281 280 280 280 280 280 279 279 279 279 278 278 279 279 279 279 279 278 277 279 280 282 281 283 281 279 280 281 282 285 287 287 291 292 293 295 295 296 296 297 297 297 299 300 301 306 314 316 321 324 326
284 285 285 285 285 285 285 285 285 285 285 285 286 285 285 283 281 280 279 279 279 279 279 279 279 279 279 281 281 281 280 280 280 280 280 280 280 280 280 279 279 279 279 278 278 278 278 278 278 278 277 278 277 276 276 280 280 281 282 282 283 280 280 283 283 280 290 291 292 293 293 294 295 295 296 297 299 301 305 310 313 318 320 323 327
284 285 285 285 285 285 285 285 284 284 285 285 284 285 283 282 281 281 280 279 279 279 280 280 280 280 280 279 280 280 280 280 280 280 280 280 280 279 279 279 279 278 279 278 278 278 278 278 278 278 277 278 277 275 275 276 278 279 280 280 281 282 283 281 279 283 281 287 290 291 292 295 296 296 296 297 297 297 298 300 303 307 315 322 326
284 284 284 284 284 284 284 284 284 285 285 285 283 285 282 282 281 280 280 279 279 279 279 279 280 280 279 279 279 279 279 279 279 279 279 279 279 279 279 279 278 278 278 278 277 278 278 278 278 278 277 277 277 275 275 276 275 276 280 279 280 281 284 284 285 282 281 280 283 290 292 293 293 293 295 295 296 297 298 300 302 305 310 316 322
284 284 284 284 284 284 284 284 283 285 284 284 283 283 284 282 281 281 279 280 280 279 280 280 279 279 278 278 278 278 278 278 279 278 279 279 279 278 278 278 277 277 278 277 277 277 277 277 276 276 276 276 277 277 276 276 277 276 277 277 278 278 279 280 281 282 281 280 280 283 286 291 293 294 295 296 296 297 297 297 299 304 307 310 317
284 285 284 284 284 283 284 283 283 282 283 282 284 282 282 283 281 280 279 279 279 278 278 277 277 277 277 277 277 277 277 277 278 278 278 278 278 278 277 277 277 277 277 277 277 277 277 276 276 276 276 275 276 276 275 275 276 276 276 276 275 275 276 276 278 279 281 283 280 282 284 286 286 291 294 295 295 297 297 297 297 300 304 310 314
283 283 284 283 283 283 283 282 282 282 282 282 281 281 280 280 280 280 279 278 278 277 277 276 276 276 276 276 276 276 276 276 277 277 277 277 277 277 277 277 277 277 277 276 276 276 276 276 276 276 275 275 275 275 275 275 275 275 275 275 274 275 274 274 276 279 281 281 282 282 285 287 288 289 292 295 295 296 297 297 297 298 300 303 308
Wind_Speed
9 12 12 15 17 17 18 17 17 17 16 16 17 17 16 16 15 14 12 11 10 9 9 9 9 9 9 8 8 8 9 10 11 12 13 11 8 6 7 6 5 4 4 4 5 5 5 6 6 5 6 6 6 6 6 6 7 7 7 8 8 8 8 8 7 7 7 8 9 9 9 9 10 10 11 10 9 10 8 9 9 9 9 9 12
12 12 9 11 17 15 16 16 17 16 17 17 17 17 17 17 17 17 16 15 14 12 13 12 12 11 10 10 10 8 9 8 8 10 9 12 16 16 12 10 9 8 8 8 8 7 6 6 7 5 5 4 5 6 7 6 6 7 8 8 9 9 8 7 6 4 6 7 6 8 8 9 9 10 10 10 11 11 9 9 9 9 8 9 13
8 8 8 10 15 14 15 16 16 16 16 18 18 18 18 18 18 18 18 16 16 16 15 15 14 14 13 13 12 11 10 9 8 9 9 8 8 11 14 15 13 12 11 11 10 10 9 8 8 7 7 6 4 4 5 6 5 5 7 8 8 9 9 7 6 5 6 7 7 6 7 8 9 9 9 10 12 11 9 9 10 11 8 12 12
6 7 8 10 13 13 15 16 16 16 17 17 18 18 18 18 18 18 18 18 18 17 17 16 16 16 16 16 15 14 13 12 11 9 9 9 9 7 8 12 13 14 13 13 13 12 10 10 10 9 8 5 4 6 7 6 5 5 6 8 9 9 10 8 6 6 6 6 7 6 7 8 7 7 9 11 13 12 8 9 9 11 11 13 13
7 7 8 7 9 10 14 15 15 16 16 17 17 18 18 18 18 18 19 19 19 19 18 18 18 17 17 17 17 16 16 15 15 13 12 11 10 9 8 9 9 11 12 12 13 14 15 12 12 11 9 6 7 7 6 6 6 6 6 7 8 9 9 9 8 7 7 6 6 6 8 8 8 8 9 11 13 12 8 10 11 13 13 14 15
6 6 6 7 7 8 14 14 15 15 16 17 17 18 18 18 18 18 19 19 19 20 20 20 20 20 19 19 19 19 17 17 17 17 16 15 14 12 11 11 10 10 11 12 12 14 15 15 17 14 12 9 7 5 5 6 7 6 6 6 7 8 8 7 8 8 7 7 6 7 8 9 8 7 10 12 13 11 8 10 12 14 14 14 15
5 5 6 7 6 9 13 15 16 16 17 17 18 18 18 18 18 18 19 19 19 19 19 19 19 19 19 20 19 19 20 19 19 19 18 17 17 17 15 14 12 12 12 12 11 12 13 15 15 17 16 12 9 8 5 6 7 7 7 7 7 8 8 8 7 7 7 7 6 6 7 8 9 7 10 12 13 13 12 13 14 16 16 16 17
4 5 6 6 5 11 14 15 16 16 17 17 18 18 18 18 19 19 19 19 19 18 18 19 19 19 20 20 20 20 19 19 19 19 19 18 18 17 17 17 16 15 15 13 12 12 12 13 13 13 15 14 15 13 10 8 7 8 7 7 7 8 8 7 7 7 6 7 7 6 7 8 9 8 11 11 14 15 13 16 17 17 18 18 15
7 7 6 6 6 14 14 15 16 17 17 17 18 18 18 18 19 19 19 19 19 19 18 18 18 18 19 19 19 20 19 19 20 20 19 19 18 18 18 18 18 18 17 16 14 13 13 12 12 12 13 12 12 16 16 14 11 8 8 9 9 8 7 7 7 7 7 6 7 7 8 8 9 9 10 12 14 16 14 14 15 18 17 17 15
6 5 6 5 6 14 14 15 16 16 17 17 18 18 18 18 18 18 19 19 19 19 18 18 18 18 18 18 18 18 19 19 19 18 19 19 19 19 18 18 18 18 18 17 16 16 15 15 14 13 13 13 11 12 14 13 14 11 9 9 9 9 8 7 8 7 6 7 8 8 8 8 9 9 11 13 15 17 14 11 10 11 13 15 14
5 5 5 6 7 14 15 15 16 16 17 17 17 18 18 18 18 18 18 19 19 19 19 18 18 19 19 18 18 18 18 18 18 18 18 18 19 19 20 18 18 18 18 18 18 17 17 17 17 16 15 15 14 13 13 12 12 13 13 11 9 10 9 8 7 8 6 7 8 7 8 7 9 8 10 12 16 18 15 11 14 12 13 14 16
4 4 5 5 7 14 14 15 15 16 17 17 17 17 17 18 18 18 18 18 18 19 19 18 18 19 19 19 18 18 18 18 18 18 19 18 18 18 19 19 19 19 19 20 20 19 19 18 18 18 18 16 15 13 14 15 14 14 13 14 12 9 9 8 7 7 8 7 8 8 9 9 10 10 12 14 18 19 16 12 15 18 17 17 18
4 4 4 5 5 13 14 15 15 16 16 16 17 17 17 17 18 18 18 18 18 18 18 18 18 19 19 19 18 18 18 18 18 18 19 19 19 19 18 18 19 19 19 19 19 20 19 18 18 18 17 17 16 16 15 14 15 15 14 14 12 11 9 9 7 9 9 9 9 9 9 9 10 12 14 15 18 20 20 18 17 18 20 20 20
4 4 4 5 6 10 15 15 15 16 17 17 17 17 17 18 18 18 18 18 18 18 18 18 18 18 18 18 18 18 18 18 18 18 19 19 19 19 19 18 18 18 18 19 19 19 20 21 20 19 18 17 16 16 16 16 15 16 16 15 14 11 10 8 8 8 10 10 9 10 10 8 9 13 15 17 19 20 20 18 18 19 20 21 19
5 5 4 5 5 6 12 15 15 16 16 17 17 17 17 17 17 17 18 18 18 18 18 18 18 18 18 18 18 18 18 18 18 18 18 19 19 19 18 18 18 19 19 18 18 19 18 19 19 18 18 18 17 16 15 15 15 15 15 15 15 14 11 9 8 8 9 9 10 10 10 10 12 15 17 17 20 20 21 20 18 19 20 18 18
4 5 4 4 4 5 5 10 15 15 16 16 17 17 17 17 17 17 18 17 18 18 18 18 18 18 18 18 18 18 18 18 18 18 18 19 19 19 18 18 18 18 18 18 18 19 19 19 19 19 18 18 18 18 16 15 15 16 16 15 14 15 14 8 9 9 9 9 9 9 10 10 12 15 17 18 19 21 20 21 20 20 19 18 17
4 3 4 4 5 4 4 5 8 12 13 14 15 16 16 17 17 17 17 17 17 17 17 18 18 18 18 18 18 18 18 18 18 18 18 19 19 19 19 18 18 18 18 18 18 18 19 19 19 19 19 18 19 18 18 18 17 16 15 15 14 14 13 11 8 9 9 9 9 9 9 10 11 15 17 18 20 21 21 21 21 20 18 18 18
2 2 3 3 4 4 4 4 5 5 5 8 10 15 15 16 16 16 17 17 17 17 17 18 17 17 17 17 17 17 18 18 17 17 18 18 18 18 18 18 18 18 18 18 18 18 18 18 18 18 19 19 19 20 19 18 17 17 16 16 15 14 13 11 8 10 10 9 10 9 9 11 11 15 18 18 19 20 21 22 22 20 19 16 15
1 1 1 3 3 3 4 4 5 4 5 4 5 7 15 14 15 16 16 16 16 17 17 17 17 16 16 16 15 15 15 15 16 16 18 17 18 16 18 18 18 18 18 18 18 18 18 18 18 18 18 19 19 20 20 18 18 18 17 17 16 14 13 10 7 8 10 10 9 9 10 12 12 17 19 20 21 20 21 22 22 21 19 18 18
0 1 2 1 2 3 3 3 3 4 3 4 4 5 9 12 13 14 15 15 15 15 15 15 14 13 13 13 12 9 9 9 13 11 15 16 17 16 17 17 18 18 18 18 18 18 18 18 18 18 18 18 19 19 18 18 19 19 18 18 17 17 10 7 9 10 9 9 8 9 10 11 15 19 20 21 22 21 20 21 22 22 19 19 18
0 1 1 1 2 2 3 3 3 3 4 4 4 4 6 8 7 9 10 12 12 12 11 10 9 8 9 9 8 7 7 7 7 9 10 11 13 15 16 17 18 17 18 18 18 19 19 19 18 18 18 19 18 17 15 16 18 18 19 19 18 11 8 8 9 8 8 8 9 9 12 13 17 19 20 22 22 22 21 20 21 22 21 21 19
2 2 1 1 2 2 2 2 3 3 3 3 3 3 3 5 4 4 5 6 7 8 6 6 6 5 7 5 5 5 5 5 6 8 8 10 11 15 15 17 17 17 18 18 18 18 18 19 19 19 18 18 18 10 10 12 16 17 18 16 11 8 9 9 9 9 9 7 8 10 12 16 19 20 22 23 23 22 21 21 21 20 23 21 18
3 2 1 2 1 1 2 3 3 3 4 4 3 3 4 3 4 3 3 5 5 6 5 6 5 6 6 6 6 5 6 6 6 8 7 9 8 12 14 16 17 17 17 17 17 17 18 18 18 18 18 17 10 8 8 9 10 14 13 10 9 9 11 11 10 10 10 9 8 11 12 17 20 21 22 23 25 23 22 22 22 21 19 21 19
5 4 3 1 1 2 2 1 2 3 4 3 3 3 3 3 3 3 3 4 4 4 5 4 4 5 5 5 5 5 5 5 7 8 7 7 7 8 10 11 12 13 16 12 13 14 18 16 15 17 12 8 9 8 9 9 9 9 9 9 9 10 10 10 10 10 10 10 10 12 13 18 21 22 22 24 24 24 24 24 23 22 22 20 23
5 4 2 2 2 2 3 3 2 3 4 3 3 3 3 3 3 3 4 4 4 5 5 5 5 6 5 5 5 5 5 6 7 7 8 7 7 7 7 7 7 8 11 9 9 9 10 10 10 10 9 9 9 9 9 9 9 9 9 9 10 10 10 9 9 10 10 11 11 13 15 19 21 23 24 24 25 25 25 25 24 23 23 21 22
3 4 5 3 2 2 2 2 3 3 3 2 2 2 3 3 3 3 3 4 4 4 4 5 6 7 7 7 7 7 8 7 8 8 8 9 9 9 9 9 8 8 7 8 8 9 9 9 9 10 9 9 9 9 9 9 10 9 9 10 10 10 9 9 10 10 10 10 11 13 15 17 21 22 23 25 26 26 26 26 26 25 23 22 23
5 5 4 3 2 2 3 2 3 3 4 3 2 2 3 3 3 4 5 6 5 6 6 6 6 7 7 7 7 7 7 7 7 7 8 7 7 8 9 9 10 9 9 9 9 9 8 9 9 9 9 10 10 10 10 10 9 10 10 10 10 10 10 10 10 10 10 10 12 15 14 14 18 21 24 25 26 27 26 27 28 27 26 24 24
6 6 4 4 3 3 1 2 2 3 3 3 3 3 3 4 4 4 4 6 5 5 5 5 5 6 6 6 6 6 7 7 7 7 7 6 6 7 7 7 8 8 9 8 9 9 9 9 9 10 10 9 10 10 9 10 10 10 10 10 10 10 10 10 10 11 11 11 11 14 14 16 18 20 22 24 26 28 27 28 28 28 28 26 25
8 7 5 5 4 3 2 3 3 3 3 2 4 2 3 3 3 3 3 5 4 4 4 4 5 5 5 6 5 6 6 6 6 7 6 7 7 7 7 7 7 7 8 8 9 10 10 10 9 10 9 10 10 10 10 10 9 9 10 11 10 11 11 11 11 11 11 11 11 12 16 16 16 20 20 25 27 28 29 29 28 27 28 29 28
8 8 6 5 4 3 4 4 2 2 2 2 2 2 2 2 2 2 2 4 3 4 5 4 4 4 4 4 4 5 5 6 6 7 7 7 7 7 7 7 7 7 7 8 8 9 10 10 10 10 10 10 10 10 10 10 10 10 10 11 11 10 10 10 11 11 11 11 12 13 17 17 18 21 23 25 27 27 28 29 30 29 29 29 30
8 8 6 6 4 4 4 2 2 2 2 2 1 1 1 2 2 1 2 3 3 3 3 3 3 4 4 4 3 6 5 6 6 7 6 7 7 7 8 7 7 7 7 8 8 8 8 9 10 11 11 11 10 10 10 11 10 10 10 11 11 11 11 10 11 11 12 12 12 13 15 19 18 19 21 23 26 28 28 29 29 28 29 29 30
9 9 7 5 5 5 5 3 3 2 2 1 1 1 1 1 1 1 2 1 2 2 2 2 3 3 4 3 3 5 4 5 5 6 6 7 7 7 7 7 7 7 7 8 9 9 8 8 10 10 11 11 10 10 10 10 10 10 10 11 11 11 11 11 11 11 12 12 12 13 13 15 19 20 20 22 26 28 29 28 29 29 29 29 29
6 8 8 6 7 6 5 4 3 3 2 1 1 0 1 0 0 1 1 1 2 2 3 3 3 3 4 4 3 5 4 4 4 5 6 5 6 6 6 6 7 7 8 9 10 8 8 8 9 9 9 10 10 10 10 10 11 11 10 11 11 12 11 11 11 11 12 12 12 12 13 13 15 19 21 21 23 25 27 29 28 29 29 28 28
7 6 7 8 6 5 4 4 4 3 2 1 0 0 1 1 0 0 1 1 2 2 3 3 3 4 4 4 3 5 4 4 4 4 5 5 6 6 6 6 6 8 8 8 8 7 8 9 9 9 8 9 9 10 10 11 10 10 10 11 10 11 11 12 12 12 12 12 12 13 12 13 13 13 14 18 20 22 25 26 28 28 30 29 29
7 7 9 9 7 6 5 4 4 4 2 1 1 2 1 1 1 1 1 1 1 2 3 3 3 3 4 4 3 4 4 4 3 4 4 4 5 6 6 6 7 8 7 7 8 7 7 8 9 10 9 8 9 10 10 11 12 12 11 11 11 11 11 12 12 13 12 13 13 13 13 12 13 13 13 13 16 21 23 25 26 30 31 30 30
11 10 8 8 8 7 6 6 4 4 2 2 2 2 2 1 0 1 1 1 1 2 2 3 3 3 3 3 3 4 4 4 3 3 3 4 4 5 6 7 8 7 7 7 7 7 7 8 8 8 10 10 10 10 9 11 11 12 11 11 11 12 12 12 13 13 13 13 13 13 13 13 13 13 15 14 14 16 20 22 25 25 28 29 31
10 10 10 9 8 7 6 7 6 5 3 2 2 2 1 1 1 1 1 2 2 2 2 2 3 3 3 3 3 4 4 4 3 2 3 4 4 5 5 7 7 7 7 7 7 7 7 8 8 7 8 10 10 12 11 10 11 12 12 13 13 12 12 12 13 13 12 14 14 14 13 14 14 17 15 15 15 15 18 22 23 25 25 25 28
10 10 10 10 10 8 7 6 5 4 3 3 3 2 2 1 1 2 2 2 3 3 3 2 3 3 3 4 3 4 5 4 4 3 4 4 5 5 6 6 7 6 6 7 6 7 7 7 9 8 8 9 10 11 13 12 11 12 12 13 13 12 12 13 13 13 13 15 14 15 14 14 14 15 15 15 15 15 15 17 22 24 25 25 28
9 10 10 9 8 7 6 6 5 4 3 3 3 3 2 1 1 2 3 3 2 3 3 3 3 3 4 4 4 5 5 5 4 4 5 5 5 5 6 7 7 6 6 7 7 7 7 8 9 9 7 8 10 11 12 13 13 13 14 15 13 15 13 13 13 13 13 14 15 14 13 15 15 15 15 16 15 16 16 15 14 11 14 25 26
10 9 10 9 9 8 6 5 5 5 3 3 2 3 2 3 4 2 2 3 3 3 3 4 3 3 4 5 4 5 5 5 5 5 5 5 6 6 7 7 7 7 7 8 8 7 10 10 9 10 12 10 8 9 11 12 13 15 16 16 14 15 15 14 15 15 14 14 14 13 14 14 14 15 16 15 16 17 16 16 14 15 13 17 24
10 10 10 10 10 9 8 8 6 5 5 5 4 4 4 3 2 2 3 2 3 3 4 4 3 4 5 5 4 5 5 5 5 5 5 5 5 6 6 7 7 7 7 7 8 10 9 9 10 9 11 12 9 7 9 10 13 14 11 14 16 12 15 15 16 15 15 14 13 14 14 14 15 16 15 15 16 17 17 16 15 14 14 12 14
11 11 12 12 11 9 10 8 6 6 6 6 5 4 3 2 2 3 2 3 4 4 3 3 4 4 4 5 4 4 4 5 5 4 4 4 5 5 6 6 7 7 7 8 9 9 10 9 9 10 7 10 10 7 8 8 8 8 15 16 14 12 14 15 15 14 15 14 13 14 14 15 15 14 14 14 15 17 17 17 16 16 15 15 14
13 12 11 11 10 9 9 8 7 7 6 6 4 4 3 3 3 3 2 3 3 4 4 4 4 4 4 4 4 4 5 5 5 4 4 4 5 6 6 6 7 7 8 8 8 9 8 9 9 9 11 8 9 8 8 5 9 10 11 13 14 16 11 8 11 13 13 12 12 13 13 14 16 14 14 14 15 15 15 16 17 17 16 16 12
11 10 10 11 9 9 9 8 7 7 6 6 6 5 4 4 3 3 3 3 5 4 4 4 5 5 5 4 5 5 6 6 6 5 5 5 6 7 7 7 8 8 8 9 9 9 8 8 8 9 9 12 7 8 5 6 6 8 9 4 11 11 17 6 3 8 8 11 14 15 14 15 17 16 13 12 13 15 16 16 18 18 18 16 14
13 13 12 10 7 12 11 10 8 8 6 6 6 5 3 3 2 1 2 4 3 3 4 4 4 5 7 6 6 6 6 6 6 5 6 6 6 7 7 8 8 8 8 9 9 9 9 9 9 9 9 9 13 9 8 7 8 7 8 10 8 7 10 14 16 16 11 13 16 14 14 15 14 12 12 14 13 13 14 17 19 19 18 17 19
14 13 12 12 11 10 10 9 7 7 7 7 7 5 5 4 3 3 2 3 3 2 4 4 4 5 6 5 6 5 6 6 5 5 5 5 6 6 7 7 8 8 8 9 9 9 10 9 9 9 10 10 11 13 11 7 9 10 12 13 11 12 13 14 13 16 6 11 15 13 17 18 18 18 16 15 14 13 13 14 15 18 19 18 17
14 11 11 12 11 11 10 10 9 7 7 7 7 5 5 4 5 4 4 4 4 4 3 4 5 6 5 6 6 5 5 6 6 5 5 5 6 7 7 8 8 8 9 9 10 10 9 9 8 9 9 9 9 12 13 10 9 11 12 15 17 17 17 14 15 15 21 14 9 12 13 13 13 14 15 14 15 15 14 13 14 15 18 19 17
13 12 12 10 12 11 11 11 8 8 7 6 7 6 6 5 5 4 4 5 6 6 5 5 5 6 7 7 6 6 6 6 7 6 6 7 7 8 7 8 9 9 9 9 10 10 9 9 9 10 10 9 10 11 13 11 10 11 8 12 14 15 17 18 19 16 17 21 21 11 15 17 16 17 18 18 17 16 16 14 15 14 14 16 19
14 14 13 11 11 11 11 10 9 8 7 8 7 6 5 5 5 4 4 5 5 6 5 5 6 6 7 6 6 7 6 6 6 7 7 7 7 8 8 9 9 10 9 10 10 11 12 12 11 9 9 10 9 11 12 13 11 13 9 12 12 13 13 15 17 17 17 18 24 23 19 14 15 16 17 16 14 14 15 15 15 15 13 14 16
12 12 12 11 10 10 11 11 10 7 7 8 7 7 6 5 4 4 5 5 4 4 4 5 5 5 6 7 6 6 5 5 5 6 7 7 8 8 9 10 10 11 10 11 12 12 12 12 12 12 12 13 11 12 14 14 14 14 13 13 13 12 12 14 15 17 18 20 21 22 19 18 19 15 14 15 18 14 15 15 16 16 15 13 13
11 12 12 11 10 11 11 11 10 7 7 7 8 7 6 5 4 5 6 6 5 5 5 5 5 5 6 6 6 5 5 5 5 6 7 8 8 8 9 10 10 11 11 11 11 11 12 12 12 13 14 14 13 13 15 16 15 16 16 13 14 14 13 14 14 13 15 16 16 20 21 18 18 21 18 16 19 17 14 13 15 15 16 15 14
Wind_Direction
350 333 328 328 334 348 19 22 27 28 34 37 39 38 41 43 42 42 37 34 26 21 17 7 352 348 342 342 342 346 333 332 331 324 327 319 314 308 305 309 295 298 293 315 332 331 329 321 322 327 323 318 306 305 312 318 315 309 310 312 309 304 308 311 297 289 280 275 281 279 284 284 287 286 283 256 236 239 196 205 211 208 208 198 191
310 315 318 321 336 354 28 32 33 32 33 38 41 40 38 39 39 38 37 38 39 38 36 28 24 17 8 359 353 350 346 339 332 331 327 323 333 330 323 317 317 313 315 317 322 324 320 313 315 317 299 297 314 320 317 306 304 304 304 299 302 299 296 302 295 261 257 261 268 279 283 283 282 282 282 265 232 231 196 203 214 218 211 199 199
287 304 319 323 340 2 30 36 40 43 43 43 42 44 45 43 40 39 37 37 37 36 35 33 32 31 28 21 15 7 1 352 343 331 330 321 309 307 332 331 322 319 316 313 309 312 316 310 310 309 314 312 255 259 265 274 281 292 289 292 293 297 297 294 292 264 252 262 270 279 282 278 280 280 277 263 246 232 200 204 210 226 216 201 197
317 331 329 330 340 6 33 37 40 44 45 46 46 46 45 44 43 41 40 38 37 38 37 35 32 31 30 30 27 23 18 10 3 349 343 344 338 340 323 306 322 323 321 317 310 307 306 307 310 305 308 316 235 238 252 256 260 267 282 286 287 288 289 292 293 288 264 257 268 283 283 281 276 267 269 258 248 241 200 207 210 214 224 206 192
351 334 327 327 340 1 35 39 43 45 46 47 47 47 47 45 43 42 40 38 38 37 36 36 36 34 32 31 28 27 25 22 19 16 9 360 355 346 334 322 323 319 317 313 315 314 313 309 304 304 301 296 296 268 241 236 247 257 272 282 285 285 288 289 293 294 291 267 259 272 281 279 279 279 267 260 250 247 203 207 213 212 221 213 200
335 330 331 337 340 0 34 42 45 46 47 47 47 48 47 47 46 44 42 39 37 36 35 34 33 32 31 29 30 29 26 27 27 25 21 20 15 3 353 341 333 323 314 322 320 319 316 314 311 304 308 309 302 308 254 233 236 254 264 272 275 282 282 284 287 290 292 288 261 272 281 279 278 277 267 259 253 244 208 202 218 214 217 217 211
334 333 343 344 333 23 36 44 47 47 48 47 47 47 48 47 46 46 46 43 40 37 35 34 33 32 31 30 29 29 27 25 26 24 25 23 24 20 14 6 352 339 333 327 324 318 314 315 312 322 311 310 309 310 288 265 259 256 264 267 271 277 279 278 277 279 284 285 287 284 284 282 277 273 271 263 256 248 222 209 218 217 216 216 216
2 357 349 346 342 34 41 45 48 49 49 48 48 47 47 46 46 46 45 44 42 40 39 36 33 33 32 30 28 29 28 27 24 24 25 21 22 21 19 17 12 6 358 347 339 336 330 314 325 312 305 314 319 319 310 297 293 282 270 267 275 276 277 273 279 277 277 282 283 282 281 280 273 269 271 266 258 255 236 220 215 217 216 216 218
15 356 354 351 354 40 43 46 48 50 49 50 49 48 47 46 46 46 45 42 42 41 40 39 38 36 35 33 31 29 28 29 28 26 23 20 20 18 19 16 12 8 5 360 359 347 335 331 323 316 320 320 321 316 316 310 302 289 282 277 274 272 262 262 262 272 269 276 277 274 276 278 274 267 268 269 264 257 241 226 226 223 219 218 214
6 359 357 352 9 42 46 48 49 50 51 51 50 49 49 48 47 47 44 43 41 40 40 40 39 38 37 35 33 31 29 28 28 26 23 20 19 15 16 20 12 4 3 359 359 352 350 348 342 334 328 328 322 313 311 316 313 298 283 280 277 277 273 258 253 256 268 272 273 275 273 268 273 267 266 267 266 260 251 222 233 228 229 225 214
10 7 1 351 23 46 48 49 50 50 52 52 51 51 50 49 48 47 46 44 43 41 38 38 38 37 36 35 33 32 30 29 27 26 24 21 19 17 12 11 11 9 7 2 359 356 353 353 352 349 347 348 338 328 319 319 317 312 303 285 274 274 277 275 269 269 259 265 269 269 271 238 264 267 263 260 263 264 259 219 237 237 233 228 221
27 16 6 4 15 50 52 53 52 53 52 51 51 51 52 51 50 48 46 45 44 41 40 38 37 36 35 34 32 31 30 28 27 26 24 22 21 17 13 9 4 9 8 9 3 2 -0 0 357 359 360 357 351 344 333 322 317 312 307 303 288 275 279 274 268 268 264 258 262 263 267 267 270 265 259 259 263 264 261 230 232 232 231 229 224
41 29 22 9 1 52 54 53 55 55 54 53 52 51 49 49 48 47 46 45 43 42 40 39 38 36 34 33 32 30 28 28 27 25 23 21 19 17 14 12 10 4 360 0 0 357 359 0 3 1 356 352 350 345 339 331 322 313 306 301 294 283 271 273 272 273 269 264 262 258 261 263 266 267 265 259 259 262 262 254 239 233 230 228 226
69 44 32 20 22 38 54 52 53 54 54 53 52 51 51 49 47 46 44 43 42 41 40 39 38 37 35 34 31 29 28 27 26 25 24 21 18 15 13 12 11 9 5 1 358 356 354 355 356 354 350 347 344 345 342 335 329 323 315 306 298 288 270 262 265 269 270 266 260 261 258 255 259 263 264 265 261 260 260 259 245 239 236 233 228
78 52 38 36 29 28 43 52 52 51 51 51 51 49 50 49 48 46 45 43 41 40 39 38 36 36 35 33 30 28 26 25 24 24 23 20 18 15 12 11 10 9 6 4 2 0 357 353 352 350 349 345 340 339 341 337 335 332 327 321 309 296 275 269 269 271 271 266 264 258 258 255 252 257 262 262 264 261 258 259 253 244 241 237 231
61 62 45 38 40 41 31 42 48 48 49 50 49 49 47 47 46 46 44 42 41 39 38 35 35 35 33 32 30 28 25 24 22 22 21 19 16 14 10 10 10 9 5 3 2 -0 356 354 352 350 347 345 345 342 340 341 341 332 327 323 316 303 290 267 272 266 267 267 265 260 260 259 246 252 258 262 263 264 259 256 254 249 243 239 231
44 42 55 48 43 42 43 43 46 45 41 41 48 48 47 46 44 42 41 40 39 39 38 35 33 32 30 29 28 26 24 22 22 19 19 17 14 12 8 8 9 8 6 2 0 358 355 353 351 350 347 345 342 342 340 340 335 329 325 318 311 305 297 282 268 266 266 264 260 262 261 259 247 244 252 258 263 265 262 257 253 252 245 241 232
23 23 53 54 41 39 45 40 43 41 41 35 31 47 47 47 45 43 41 39 37 35 34 34 31 30 29 27 25 22 21 19 19 17 16 16 13 10 5 5 6 6 4 1 360 357 354 352 351 350 348 347 344 341 339 336 332 329 325 320 315 307 299 289 277 274 268 262 262 259 260 257 248 249 254 255 258 263 264 258 254 251 247 238 245
14 0 13 46 48 41 49 45 45 45 44 42 35 30 46 43 44 42 40 38 37 34 33 31 27 25 24 24 21 18 15 13 13 12 12 11 9 7 3 3 4 4 1 359 358 356 353 351 350 349 348 347 346 343 338 333 331 329 326 323 318 309 300 293 280 270 266 262 262 262 259 255 244 249 252 255 258 259 263 262 254 250 245 234 225
245 351 53 5 26 50 36 54 53 50 49 52 43 34 44 41 40 41 39 38 36 33 30 26 21 16 16 15 12 10 11 8 6 6 7 6 3 1 360 1 1 1 359 357 356 354 352 349 350 347 347 347 346 343 339 334 331 330 328 325 321 312 299 292 286 276 266 263 257 259 262 253 253 253 254 256 257 256 259 263 259 250 244 239 225
330 55 28 20 42 43 32 56 56 54 59 59 53 45 44 48 37 35 37 34 35 31 27 23 19 10 12 8 4 9 8 5 0 4 360 3 356 357 357 357 357 358 356 355 353 352 350 348 347 346 346 345 344 339 335 335 332 330 328 326 314 304 296 290 284 275 268 261 256 258 254 255 257 258 254 257 257 257 257 258 258 252 244 241 234
107 90 38 23 68 45 40 47 46 46 61 57 60 56 44 46 45 30 31 31 24 23 17 17 11 10 9 6 10 11 8 4 358 360 2 358 355 354 354 355 355 354 351 352 351 351 348 347 344 344 344 343 340 338 335 332 330 329 325 317 312 309 303 293 286 280 273 260 252 258 249 250 254 257 260 258 255 253 254 256 257 254 249 239 228
155 155 89 65 51 99 46 41 35 37 51 54 49 43 47 46 41 43 36 32 24 22 16 11 9 7 3 3 10 8 3 359 3 357 352 349 346 347 351 352 351 350 348 347 347 347 346 345 342 341 340 338 338 336 332 330 327 327 325 323 321 316 313 302 290 282 276 271 261 252 248 253 256 258 258 259 261 259 255 255 256 254 248 246 236
167 163 141 180 128 81 67 57 32 31 52 42 34 39 37 34 34 31 38 30 27 21 17 10 9 7 3 4 9 3 356 1 356 352 349 353 351 345 345 343 343 342 340 342 340 342 342 340 339 339 336 337 337 333 330 327 326 325 324 322 318 316 313 309 300 289 279 270 265 257 250 256 258 258 257 257 261 265 261 256 255 255 248 235 241
182 167 156 141 91 77 49 40 22 37 51 36 44 34 33 31 29 28 29 25 19 17 12 6 6 4 3 6 3 2 2 6 4 1 359 353 350 349 350 351 348 343 340 340 340 338 340 338 338 339 337 334 331 330 328 325 323 322 320 318 315 312 308 304 302 299 293 283 272 252 244 248 255 258 258 260 258 259 263 262 257 255 253 235 230
182 150 156 149 115 85 56 22 43 45 53 49 38 45 41 35 25 30 31 30 26 15 11 8 3 1 359 1 359 6 8 8 7 3 359 355 352 351 350 348 348 346 345 343 340 338 335 335 334 333 332 329 325 322 321 319 319 318 315 314 312 310 307 304 302 297 295 295 290 273 250 244 251 259 262 263 262 261 261 264 263 257 252 247 229
180 165 170 180 148 93 59 35 49 29 38 25 37 37 33 30 26 23 25 19 16 11 10 5 2 355 356 359 5 7 9 6 4 2 1 355 353 350 346 345 346 345 346 343 340 338 336 333 331 327 324 321 320 317 316 314 312 311 310 309 309 309 307 306 303 298 295 293 290 286 269 253 257 259 265 267 266 263 259 260 262 260 255 248 244
157 169 177 169 154 95 74 86 49 53 26 20 37 28 19 26 20 24 27 21 14 10 5 1 352 353 355 359 7 10 5 3 1 360 355 353 349 341 341 342 346 343 343 343 341 339 335 331 327 324 323 320 315 314 311 313 311 309 306 306 307 305 306 304 303 301 300 296 295 290 280 265 257 255 257 262 266 266 263 261 260 260 258 251 244
162 171 168 159 157 135 112 89 75 59 53 24 38 22 27 24 29 26 31 19 15 6 0 356 358 351 353 359 9 11 4 2 358 354 346 350 345 345 346 349 346 346 345 344 344 338 333 331 327 325 323 319 317 313 312 307 305 307 305 303 303 303 302 302 301 301 299 297 294 290 288 284 271 266 260 261 260 264 266 264 262 260 260 256 251
175 166 164 168 147 133 130 105 120 80 66 54 38 32 23 30 24 37 29 24 12 359 359 1 352 349 353 0 10 8 4 358 355 351 350 346 344 345 349 348 345 345 347 345 345 338 332 328 327 324 322 319 316 313 311 305 303 298 299 300 301 300 299 299 300 302 301 300 296 293 289 283 280 275 267 260 260 259 261 262 263 262 260 260 257
164 165 173 166 143 135 128 152 121 104 87 78 37 31 44 26 30 36 46 29 9 3 3 353 346 343 346 346 7 3 1 1 358 351 348 345 343 344 344 341 338 341 342 339 339 335 329 327 326 324 320 318 313 311 309 307 303 300 294 293 295 296 296 296 297 297 298 298 299 297 297 293 284 273 266 261 258 258 257 261 263 261 262 260 259
173 173 174 160 147 155 148 147 121 108 130 100 103 10 23 356 22 49 54 36 21 8 352 349 342 339 334 342 357 357 356 358 355 352 346 343 340 338 334 336 334 333 337 337 332 329 325 321 320 319 316 313 311 309 308 305 302 300 298 293 291 289 291 294 294 294 293 294 294 293 290 290 288 283 277 269 263 260 256 254 257 260 262 262 261
194 168 167 152 164 166 153 154 133 135 143 158 91 194 274 17 302 53 55 58 15 5 350 343 339 330 329 331 347 343 350 352 354 351 345 338 334 329 330 328 329 329 329 328 324 322 323 323 322 322 316 313 310 309 307 302 299 300 299 295 294 290 288 288 290 291 291 290 291 290 287 286 284 283 275 269 266 261 257 255 253 254 256 258 258
167 171 147 165 163 165 158 145 156 148 175 129 160 260 294 260 155 74 30 18 10 357 340 333 329 326 323 323 331 336 336 341 346 348 346 339 331 326 326 325 325 325 323 324 325 326 323 324 324 322 319 316 311 308 307 303 299 297 296 298 293 293 292 288 285 284 287 287 289 286 287 286 286 282 281 273 264 257 257 255 254 253 253 257 259
154 161 171 169 164 167 160 154 159 184 123 108 198 251 240 269 347 23 1 7 340 333 323 311 311 310 310 308 310 319 317 318 329 345 342 339 331 328 326 328 327 324 324 324 321 321 319 323 325 323 317 314 312 310 306 300 300 297 294 293 291 291 290 289 289 285 280 282 281 282 283 282 282 282 278 278 270 258 251 252 250 249 251 252 253
167 167 169 158 165 167 165 160 175 162 174 183 218 232 258 303 345 358 322 342 283 290 289 289 289 291 296 289 282 297 306 296 308 337 343 338 331 326 326 324 325 323 321 319 320 318 320 317 318 318 319 315 314 308 305 300 297 295 295 292 290 289 287 285 283 280 282 281 276 277 279 280 279 279 282 279 276 271 259 249 248 245 244 245 249
167 166 164 164 163 168 162 166 172 184 189 215 233 251 262 240 309 286 245 275 256 262 275 277 279 277 283 276 274 293 296 290 298 323 344 333 333 329 323 321 320 318 315 319 316 318 317 314 312 312 309 310 313 309 307 302 298 294 292 287 286 286 281 282 280 280 279 274 277 275 273 275 277 276 274 270 270 271 265 256 248 244 241 240 244
173 168 167 165 166 166 169 175 180 179 178 190 211 213 222 221 247 255 249 242 237 253 266 263 264 270 276 270 278 294 301 297 300 329 343 346 338 328 322 320 318 317 317 317 314 312 310 311 310 310 310 311 313 313 310 307 303 299 293 290 288 283 283 281 280 279 276 275 273 271 272 274 270 272 272 271 270 266 267 261 252 246 239 236 239
174 172 168 168 155 165 166 173 172 179 186 194 217 208 221 252 218 252 249 244 232 253 263 262 257 275 274 269 279 298 303 300 314 336 348 343 333 326 320 321 321 319 320 316 315 314 312 310 306 307 308 308 308 308 307 307 304 301 297 294 289 283 282 278 279 278 275 275 273 271 270 268 270 265 266 269 267 266 262 261 262 251 239 232 235
176 170 167 162 163 165 165 175 182 176 173 187 183 212 210 230 243 229 247 245 241 249 259 251 260 266 265 260 275 293 301 309 320 334 340 335 330 325 321 323 325 325 324 324 323 326 321 318 316 317 313 308 301 301 308 309 305 300 297 291 282 282 278 276 276 274 274 274 274 275 270 269 266 266 261 261 264 263 261 257 254 253 249 237 227
177 175 166 171 170 170 166 185 185 175 180 190 199 196 207 216 216 216 229 242 258 257 247 250 247 251 256 253 274 294 298 302 317 325 329 326 316 314 316 320 324 323 318 316 318 316 317 317 315 312 308 307 302 301 305 313 309 302 289 286 292 282 277 274 271 272 272 271 271 272 270 267 263 262 263 259 257 259 259 256 249 246 243 244 230
191 175 175 176 174 170 174 181 175 180 190 192 189 188 189 193 209 247 250 255 264 254 249 232 243 248 247 245 270 282 283 291 298 304 305 299 306 308 311 315 323 319 311 307 308 307 308 307 310 306 296 295 294 295 301 312 298 304 317 313 294 284 268 264 261 262 260 262 265 266 265 265 263 263 265 266 262 259 258 256 251 245 241 239 239
179 181 181 171 173 172 180 180 177 180 192 189 180 193 198 197 187 227 229 266 239 255 259 261 271 267 250 254 279 283 285 285 284 292 297 302 308 315 315 317 315 315 311 309 308 307 305 305 303 300 304 286 277 278 276 272 290 304 294 295 300 325 308 267 262 253 257 261 262 262 264 266 268 268 267 265 264 262 260 257 252 246 242 239 232
182 183 181 179 174 178 181 179 184 185 186 190 186 192 183 189 191 214 253 243 269 289 285 286 290 290 280 291 290 284 284 289 294 297 299 304 311 310 311 311 310 310 307 306 305 299 298 297 298 294 294 297 287 283 259 267 275 309 309 272 305 314 302 315 1 292 260 260 264 264 264 268 273 271 275 284 289 284 275 264 257 251 242 239 233
189 186 182 182 176 184 182 180 182 186 186 184 186 174 171 183 199 288 283 284 273 268 280 271 257 266 280 281 280 286 287 287 287 292 303 310 312 309 307 305 301 299 297 292 291 288 289 288 289 290 289 292 297 290 282 264 259 246 266 300 300 266 253 289 322 291 266 259 252 250 255 260 266 276 279 277 275 274 276 276 269 257 248 240 238
191 189 181 182 179 178 176 179 178 178 184 184 176 165 183 184 186 197 230 232 261 230 236 253 269 259 259 261 261 255 264 273 278 288 284 292 291 286 285 286 287 285 284 281 281 281 278 278 279 283 282 279 283 293 285 267 255 246 241 249 250 271 295 300 312 294 298 251 268 257 260 261 264 266 265 268 272 277 279 281 283 276 257 243 235
194 177 182 182 181 177 174 174 175 178 177 178 169 171 178 186 194 206 220 234 257 259 230 236 257 265 265 270 281 280 274 281 285 284 286 280 284 283 283 283 283 283 282 279 277 275 275 274 278 275 277 281 280 280 281 284 276 248 241 244 254 261 268 282 280 295 293 286 222 259 261 254 258 261 265 269 274 276 277 274 270 274 277 257 233
177 179 183 181 180 179 174 174 173 172 173 165 170 175 180 188 190 203 213 224 232 259 268 272 265 276 281 283 290 285 280 279 290 293 292 293 291 288 285 287 285 282 282 277 277 278 277 274 271 272 276 273 270 269 280 277 269 274 236 244 248 254 259 263 265 271 281 291 290 260 259 269 268 264 263 262 264 269 275 277 277 275 276 272 250
182 184 183 180 181 178 172 166 173 170 167 169 169 183 186 181 191 198 221 229 236 249 258 263 274 269 272 278 274 274 275 278 279 287 285 286 285 287 288 284 282 282 280 277 275 277 277 279 279 277 273 275 269 271 274 274 270 267 268 259 257 258 263 262 267 263 260 272 276 281 279 276 270 262 260 259 262 267 273 276 277 277 272 274 273
185 182 180 178 178 168 169 169 175 173 168 171 171 177 183 183 184 201 222 241 240 254 254 262 260 262 269 273 272 272 280 285 280 274 279 277 279 281 281 280 280 281 280 277 279 280 279 278 277 275 275 273 270 264 263 267 268 268 262 266 264 260 258 259 252 252 259 254 264 278 276 281 280 269 259 263 266 264 270 272 273 273 271 271 271
186 181 184 180 172 171 169 172 177 167 166 168 169 178 175 176 188 203 219 240 248 258 277 277 274 274 275 274 273 282 283 284 285 280 271 278 275 275 277 280 280 280 280 281 281 283 284 284 282 278 273 267 266 264 264 264 264 266 263 256 256 252 247 251 252 249 251 257 258 259 271 266 268 276 267 257 262 261 260 268 274 274 276 275 273